Diboll, TX

7:23 PM CST on February 24, 2017 (GMT -0600)
Angelina County

Weather History for KLFK - March, 2012

Change the Weather History Date:

Monday, March 26, 2012

  Actual Average Record
Temperature  
Mean Temperature 70 °F 62 °F  
Max Temperature 87 °F 74 °F 90 °F (1928)
Min Temperature 53 °F 50 °F 25 °F (1955)
Degree Days  
Heating Degree Days 0 5  
Month to date heating degree days 61 188  
Since 1 July heating degree days 1408 1822  
Cooling Degree Days 5 2  
Month to date cooling degree days 106 31  
Year to date cooling degree days 161 50  
Growing Degree Days 20 (Base 50)    
Moisture  
Dew Point 55 °F    
Average Humidity 63    
Maximum Humidity 93    
Minimum Humidity 32    
Precipitation  
Precipitation 0.00 in 0.11 in 3.63 in (1946)
Month to date precipitation 8.32 3.21  
Year to date precipitation 17.04 11.26  
Snow  
Snow 0.00 in - - ()
Month to date snowfall 0.0  
Since 1 July snowfall 0.0  
Snow Depth 0.00 in    
Sea Level Pressure  
Sea Level Pressure 30.03 in    
Wind  
Wind Speed 3 mph (SE)    
Max Wind Speed 13 mph    
Max Gust Speed 16 mph    
Visibility 10 miles    
Events      
T = Trace of Precipitation, MM = Missing Value Source: NWS Daily Summary

Daily Weather History Graph

Daily Weather History Graph

Search for Another Location

Airport or City:

Trip Planner

Search our weather history database for the weather conditions in past years. The results will help you decide how hot, cold, wet, or windy it might be!

Date:

Astronomy

Mar. 26, 2012 Rise Set
Actual Time 7:14 AM CDT 7:34 PM CDT
Civil Twilight 6:50 AM CDT 7:59 PM CDT
Nautical Twilight 6:21 AM CDT 8:27 PM CDT
Astronomical Twilight 5:53 AM CDT 8:56 PM CDT
Moon 9:21 AM CDT (3/26) 11:27 PM CDT (3/26)
Length of Visible Light 13h 08m
Length of Day
12h 20m
Waxing Crescent, 15% of the Moon is Illuminated
Mar 26
Waxing Crescent
Mar 30
First Quarter
Apr 6
Full
Apr 13
Last Quarter
Apr 21
New

Hourly Weather History & Observations

Time (CDT) Temp. Heat Index Dew Point Humidity Pressure Visibility Wind Dir Wind Speed Gust Speed Precip Events Conditions
12:53 AM 61.0 °F - 55.0 °F 81% 30.02 in 10.0 mi Calm Calm - N/A   Clear
1:53 AM 59.0 °F - 54.0 °F 83% 30.02 in 10.0 mi Calm Calm - N/A   Clear
2:53 AM 57.9 °F - 53.1 °F 84% 30.02 in 10.0 mi Calm Calm - N/A   Clear
3:53 AM 55.9 °F - 52.0 °F 87% 30.01 in 10.0 mi Calm Calm - N/A   Clear
4:53 AM 55.9 °F - 52.0 °F 87% 30.01 in 10.0 mi Calm Calm - N/A   Clear
5:53 AM 54.0 °F - 51.1 °F 90% 30.03 in 9.0 mi Calm Calm - N/A   Clear
6:53 AM 53.1 °F - 50.0 °F 89% 30.04 in 10.0 mi Calm Calm - N/A   Clear
7:53 AM 55.0 °F - 52.0 °F 89% 30.07 in 10.0 mi Calm Calm - N/A   Clear
8:53 AM 64.9 °F - 57.0 °F 75% 30.08 in 10.0 mi Calm Calm - N/A   Clear
9:53 AM 71.1 °F - 57.0 °F 61% 30.09 in 10.0 mi SSE 3.5 mph - N/A   Clear
10:53 AM 77.0 °F - 55.0 °F 47% 30.09 in 10.0 mi SE 6.9 mph - N/A   Clear
11:53 AM 81.0 °F 80.7 °F 55.0 °F 41% 30.09 in 10.0 mi SSE 6.9 mph - N/A   Clear
12:53 PM 82.0 °F 81.3 °F 54.0 °F 38% 30.07 in 10.0 mi SE 8.1 mph - N/A   Clear
1:53 PM 84.0 °F 82.6 °F 54.0 °F 35% 30.05 in 10.0 mi South 4.6 mph - N/A   Clear
2:53 PM 84.9 °F - 52.0 °F 32% 30.02 in 10.0 mi ESE 6.9 mph - N/A   Clear
3:53 PM 84.9 °F - 52.0 °F 32% 30.00 in 10.0 mi SSE 4.6 mph - N/A   Clear
4:53 PM 86.0 °F 84.2 °F 54.0 °F 33% 29.98 in 10.0 mi East 6.9 mph - N/A   Clear
5:53 PM 84.0 °F 82.5 °F 53.1 °F 34% 29.97 in 10.0 mi SE 10.4 mph - N/A   Clear
6:53 PM 81.0 °F 80.7 °F 55.0 °F 41% 29.97 in 10.0 mi East 4.6 mph - N/A   Clear
7:53 PM 75.0 °F - 57.9 °F 55% 29.98 in 10.0 mi Calm Calm - N/A   Clear
8:53 PM 69.1 °F - 60.1 °F 73% 29.99 in 10.0 mi Calm Calm - N/A   Clear
9:53 PM 66.9 °F - 59.0 °F 76% 30.01 in 10.0 mi East 4.6 mph - N/A   Clear
10:53 PM 66.9 °F - 57.9 °F 73% 30.01 in 10.0 mi East 5.8 mph - N/A   Clear
11:53 PM 66.9 °F - 57.9 °F 73% 30.01 in 10.0 mi Calm Calm - N/A   Clear